,,PA_Meas_PMT16A,,PR_Meas_QMR101_102,,RH_Meas_QMH101,,SR_Meas_QMS101,,TA_Meas_QMH101,,GenWind,,GenWind,
time,status,PA,status,PR,status,RH,status,SR,status,TA,status,DirAvg,status,SpdAvg,
2015-04-09, 07:17:04,VALID,917.231,VALID,0,VALID,98.4107,VALID,88.639,VALID,20.1919,VALID,152,VALID,0.708594,
2015-04-09, 07:18:04,VALID,917.182,VALID,0,VALID,98.4107,VALID,101.424,VALID,20.2098,VALID,130,VALID,0.826172,
2015-04-09, 07:19:04,VALID,917.182,VALID,0,VALID,98.3726,VALID,111.094,VALID,20.2684,VALID,127,VALID,0,
2015-04-09, 07:20:04,VALID,917.182,VALID,0,VALID,98.3802,VALID,117.433,VALID,20.3269,VALID,123,VALID,0,
2015-04-09, 07:21:04,VALID,917.198,VALID,0,VALID,98.3878,VALID,128.177,VALID,20.3269,VALID,130,VALID,0.127734,
2015-04-09, 07:22:04,VALID,917.179,VALID,0,VALID,98.3497,VALID,148.591,VALID,20.3659,VALID,127,VALID,1.46875,
2015-04-09, 07:23:04,VALID,917.166,VALID,0,VALID,98.3421,VALID,159.658,VALID,20.4244,VALID,123,VALID,1.27422,
2015-04-09, 07:24:04,VALID,917.163,VALID,0,VALID,98.3344,VALID,172.658,VALID,20.5024,VALID,129,VALID,1.1082,
2015-04-09, 07:25:04,VALID,917.172,VALID,0,VALID,98.3192,VALID,179.749,VALID,20.5414,VALID,115,VALID,1.47187,
2015-04-09, 07:26:04,VALID,917.216,VALID,0,VALID,98.3039,VALID,173.088,VALID,20.5999,VALID,128,VALID,1.11055,
2015-04-09, 07:27:04,VALID,917.226,VALID,0,VALID,98.2963,VALID,187.485,VALID,20.6179,VALID,150,VALID,1.2707,
2015-04-09, 07:28:04,VALID,917.232,VALID,0,VALID,98.2811,VALID,184.047,VALID,20.6585,VALID,144,VALID,0.960156,
2015-04-09, 07:29:04,VALID,917.256,VALID,0,VALID,98.2887,VALID,169.327,VALID,20.5984,VALID,149,VALID,1.71719,
2015-04-09, 07:30:04,VALID,917.262,VALID,0,VALID,98.2506,VALID,189.204,VALID,20.639,VALID,174,VALID,1.31758,
2015-04-09, 07:31:04,VALID,917.292,VALID,0,VALID,98.2125,VALID,209.618,VALID,20.678,VALID,162,VALID,0.726563,
2015-04-09, 07:32:04,VALID,917.334,VALID,0,VALID,98.182,VALID,214.882,VALID,20.717,VALID,148,VALID,1.11992,
2015-04-09, 07:33:04,VALID,917.329,VALID,0,VALID,98.1896,VALID,220.684,VALID,20.7349,VALID,164,VALID,1.3043,
2015-04-09, 07:34:04,VALID,917.382,VALID,0,VALID,98.1591,VALID,229.172,VALID,20.7154,VALID,157,VALID,1.75547,
2015-04-09, 07:35:04,VALID,917.417,VALID,0,VALID,98.1134,VALID,237.015,VALID,20.7365,VALID,155,VALID,1.1832,
2015-04-09, 07:36:04,VALID,917.413,VALID,0,VALID,98.0448,VALID,240.238,VALID,20.8145,VALID,173,VALID,1.58828,
2015-04-09, 07:37:04,VALID,917.427,VALID,0,VALID,97.9914,VALID,241.85,VALID,20.834,VALID,159,VALID,1.42266,
2015-04-09, 07:38:04,VALID,917.417,VALID,0,VALID,97.9152,VALID,239.271,VALID,20.8519,VALID,174,VALID,0.473828,
2015-04-09, 07:39:04,VALID,917.402,VALID,0,VALID,97.8618,VALID,239.809,VALID,20.9511,VALID,189,VALID,0.828125,
2015-04-09, 07:40:04,VALID,917.459,VALID,0,VALID,97.7779,VALID,237.875,VALID,20.93,VALID,166,VALID,1.86641,
2015-04-09, 07:41:04,VALID,917.429,VALID,0,VALID,97.5645,VALID,236.693,VALID,20.9105,VALID,164,VALID,1.85703,
2015-04-09, 07:42:04,VALID,917.437,VALID,0,VALID,97.3739,VALID,230.569,VALID,20.969,VALID,155,VALID,0.996094,
2015-04-09, 07:43:04,VALID,917.44,VALID,0,VALID,97.1909,VALID,235.404,VALID,21.0275,VALID,164,VALID,1.45508,
2015-04-09, 07:44:04,VALID,917.471,VALID,0,VALID,97.1299,VALID,235.296,VALID,21.1055,VALID,182,VALID,1.00859,
2015-04-09, 07:45:04,VALID,917.486,VALID,0,VALID,97.0232,VALID,224.874,VALID,21.1836,VALID,159,VALID,1.03125,
2015-04-09, 07:46:04,VALID,917.493,VALID,0,VALID,96.7716,VALID,219.61,VALID,21.2616,VALID,158,VALID,0.530469,
2015-04-09, 07:47:04,VALID,917.51,VALID,0,VALID,96.3371,VALID,218.858,VALID,21.3022,VALID,162,VALID,0.0078125,
2015-04-09, 07:48:04,VALID,917.516,VALID,0,VALID,95.7806,VALID,212.196,VALID,21.3396,VALID,172,VALID,0.00273437,
2015-04-09, 07:49:04,VALID,917.536,VALID,0,VALID,95.2851,VALID,197.692,VALID,21.3981,VALID,165,VALID,0,
2015-04-09, 07:50:04,VALID,917.547,VALID,0,VALID,94.9573,VALID,175.989,VALID,21.4567,VALID,147,VALID,0,
2015-04-09, 07:51:04,VALID,917.555,VALID,0,VALID,94.5304,VALID,196.94,VALID,21.4583,VALID,155,VALID,0,
2015-04-09, 07:52:04,VALID,917.538,VALID,0,VALID,94.4008,VALID,182.543,VALID,21.4778,VALID,155,VALID,0,
2015-04-09, 07:53:04,VALID,917.547,VALID,0,VALID,94.2178,VALID,216.064,VALID,21.4372,VALID,159,VALID,0,
2015-04-09, 07:54:04,VALID,917.546,VALID,0,VALID,94.2254,VALID,229.709,VALID,21.5168,VALID,157,VALID,0,
2015-04-09, 07:55:04,VALID,917.533,VALID,0,VALID,94.1873,VALID,259.47,VALID,21.5559,VALID,153,VALID,0,
2015-04-09, 07:56:04,VALID,917.544,VALID,0,VALID,94.1034,VALID,272.793,VALID,21.5754,VALID,163,VALID,0,
2015-04-09, 07:57:04,VALID,917.534,VALID,0,VALID,93.8595,VALID,280.744,VALID,21.5949,VALID,160,VALID,1.11523,
2015-04-09, 07:58:04,VALID,917.539,VALID,0,VALID,93.768,VALID,291.595,VALID,21.6144,VALID,167,VALID,1.74609,
2015-04-09, 07:59:04,VALID,917.562,VALID,0,VALID,94.0196,VALID,299.868,VALID,21.6924,VALID,159,VALID,1.31523,
2015-04-09, 08:00:04,VALID,917.61,VALID,0,VALID,94.1644,VALID,309.645,VALID,21.7493,VALID,137,VALID,1.33594,
2015-04-09, 08:01:04,VALID,917.622,VALID,0,VALID,94.4465,VALID,315.984,VALID,21.8681,VALID,153,VALID,0.986719,
2015-04-09, 08:02:04,VALID,917.65,VALID,0,VALID,93.6689,VALID,324.365,VALID,21.8859,VALID,149,VALID,1.18008,
2015-04-09, 08:03:04,VALID,917.628,VALID,0,VALID,93.3868,VALID,332.101,VALID,21.9444,VALID,185,VALID,1.56328,
2015-04-09, 08:04:04,VALID,917.662,VALID,0,VALID,92.8151,VALID,340.696,VALID,22.0047,VALID,168,VALID,0.874219,
2015-04-09, 08:05:04,VALID,917.709,VALID,0,VALID,91.7554,VALID,352.085,VALID,22.042,VALID,164,VALID,1.775,
2015-04-09, 08:06:04,VALID,917.731,VALID,0,VALID,92.8913,VALID,361.432,VALID,22.1005,VALID,188,VALID,0.182812,
2015-04-09, 08:07:04,VALID,917.777,VALID,0,VALID,93.4173,VALID,365.622,VALID,22.2176,VALID,170,VALID,0,
2015-04-09, 08:08:04,VALID,917.818,VALID,0,VALID,91.0693,VALID,370.779,VALID,22.3152,VALID,177,VALID,0,
2015-04-09, 08:09:04,VALID,917.863,VALID,0,VALID,89.4455,VALID,371.317,VALID,22.4145,VALID,178,VALID,0,
2015-04-09, 08:10:04,VALID,917.88,VALID,0,VALID,89.4227,VALID,376.366,VALID,22.4323,VALID,180,VALID,0,
2015-04-09, 08:11:04,VALID,917.893,VALID,0,VALID,88.6984,VALID,379.267,VALID,22.5103,VALID,150,VALID,0,
2015-04-09, 08:12:04,VALID,917.886,VALID,0,VALID,88.5231,VALID,365.73,VALID,22.5867,VALID,161,VALID,0,
2015-04-09, 08:13:04,VALID,917.894,VALID,0,VALID,88.2334,VALID,325.869,VALID,22.6452,VALID,170,VALID,0,
2015-04-09, 08:14:04,VALID,917.886,VALID,0,VALID,87.1128,VALID,294.711,VALID,22.6647,VALID,131,VALID,0,
2015-04-09, 08:15:04,VALID,917.881,VALID,0,VALID,87.9285,VALID,323.183,VALID,22.7445,VALID,165,VALID,0,
2015-04-09, 08:16:04,VALID,917.905,VALID,0,VALID,87.0975,VALID,337.58,VALID,22.7233,VALID,154,VALID,0,
2015-04-09, 08:17:04,VALID,917.893,VALID,0,VALID,87.5626,VALID,331.886,VALID,22.7623,VALID,103,VALID,0.309766,
2015-04-09, 08:18:04,VALID,917.882,VALID,0,VALID,88.9424,VALID,326.191,VALID,22.8404,VALID,100,VALID,0,
2015-04-09, 08:19:04,VALID,917.892,VALID,0,VALID,88.0123,VALID,363.903,VALID,22.9592,VALID,95,VALID,0,
2015-04-09, 08:20:04,VALID,917.865,VALID,0,VALID,87.9056,VALID,335.002,VALID,23.016,VALID,103,VALID,0.355078,
2015-04-09, 08:21:04,VALID,917.851,VALID,0,VALID,88.6222,VALID,346.605,VALID,23.0373,VALID,137,VALID,0,
2015-04-09, 08:22:04,VALID,917.827,VALID,0,VALID,89.5065,VALID,339.944,VALID,23.1154,VALID,130,VALID,0,
2015-04-09, 08:23:04,VALID,917.871,VALID,0,VALID,87.1738,VALID,397.317,VALID,23.1154,VALID,156,VALID,0.164063,
2015-04-09, 08:24:04,VALID,917.866,VALID,0,VALID,87.8065,VALID,408.491,VALID,23.1544,VALID,150,VALID,0.295312,
2015-04-09, 08:25:04,VALID,917.879,VALID,0,VALID,87.3034,VALID,405.161,VALID,23.1527,VALID,132,VALID,1.87656,
2015-04-09, 08:26:04,VALID,917.888,VALID,0,VALID,88.4392,VALID,394.631,VALID,23.2307,VALID,139,VALID,0.186328,
2015-04-09, 08:27:04,VALID,917.879,VALID,0,VALID,87.8675,VALID,411.5,VALID,23.3088,VALID,123,VALID,0.00195313,
2015-04-09, 08:28:04,VALID,917.859,VALID,0,VALID,88.1114,VALID,418.698,VALID,23.4667,VALID,133,VALID,0,
2015-04-09, 08:29:04,VALID,917.857,VALID,0,VALID,87.2119,VALID,414.938,VALID,23.5058,VALID,87,VALID,0.49375,
2015-04-09, 08:30:04,VALID,917.871,VALID,0,VALID,87.776,VALID,414.615,VALID,23.4845,VALID,157,VALID,0.0867188,
2015-04-09, 08:31:04,VALID,917.859,VALID,0,VALID,87.2424,VALID,412.896,VALID,23.5626,VALID,95,VALID,0,
2015-04-09, 08:32:04,VALID,917.831,VALID,0,VALID,86.1598,VALID,413.756,VALID,23.6016,VALID,103,VALID,0.321484,
2015-04-09, 08:33:04,VALID,917.81,VALID,0,VALID,86.2208,VALID,417.194,VALID,23.6992,VALID,124,VALID,0.123047,
2015-04-09, 08:34:04,VALID,917.84,VALID,0,VALID,86.9069,VALID,410.533,VALID,23.7773,VALID,84,VALID,0,
2015-04-09, 08:35:04,VALID,917.853,VALID,0,VALID,84.1778,VALID,391.945,VALID,23.7578,VALID,131,VALID,0.295312,
2015-04-09, 08:36:04,VALID,917.827,VALID,0,VALID,85.3441,VALID,379.16,VALID,23.6992,VALID,104,VALID,0.176172,
2015-04-09, 08:37:04,VALID,917.866,VALID,0,VALID,85.8625,VALID,345.746,VALID,23.756,VALID,115,VALID,0,
2015-04-09, 08:38:04,VALID,917.876,VALID,0,VALID,84.4446,VALID,306.315,VALID,23.6779,VALID,168,VALID,0.917188,
2015-04-09, 08:39:04,VALID,917.928,VALID,0,VALID,86.1522,VALID,348.647,VALID,23.7169,VALID,166,VALID,0,
2015-04-09, 08:40:04,VALID,917.896,VALID,0,VALID,85.3746,VALID,345.208,VALID,23.7382,VALID,157,VALID,0.3125,
2015-04-09, 08:41:04,VALID,917.905,VALID,0,VALID,85.832,VALID,297.075,VALID,23.7755,VALID,187,VALID,0,
2015-04-09, 08:42:04,VALID,917.905,VALID,0,VALID,85.4204,VALID,274.19,VALID,23.8554,VALID,171,VALID,0.201172,
2015-04-09, 08:43:04,VALID,917.931,VALID,0,VALID,83.6365,VALID,246.363,VALID,23.7755,VALID,156,VALID,0.496094,
2015-04-09, 08:44:04,VALID,917.944,VALID,0,VALID,83.3392,VALID,219.395,VALID,23.7187,VALID,167,VALID,0.467578,
2015-04-09, 08:45:04,VALID,917.93,VALID,0,VALID,82.6455,VALID,207.254,VALID,23.5217,VALID,158,VALID,1.3168,
2015-04-09, 08:46:04,VALID,917.918,VALID,0,VALID,83.8347,VALID,235.618,VALID,23.4632,VALID,138,VALID,1.19023,
2015-04-09, 08:47:04,VALID,917.926,VALID,0,VALID,84.8715,VALID,265.702,VALID,23.4046,VALID,143,VALID,1.31211,
2015-04-09, 08:48:04,VALID,917.923,VALID,0,VALID,85.3746,VALID,268.281,VALID,23.3851,VALID,163,VALID,0.773828,
2015-04-09, 08:49:04,VALID,917.903,VALID,0,VALID,85.8549,VALID,266.239,VALID,23.4241,VALID,158,VALID,0,
2015-04-09, 08:50:04,VALID,917.892,VALID,0,VALID,84.2387,VALID,273.76,VALID,23.4437,VALID,137,VALID,0.596484,
2015-04-09, 08:51:04,VALID,917.875,VALID,0,VALID,83.4688,VALID,291.058,VALID,23.4632,VALID,182,VALID,0.528906,
2015-04-09, 08:52:04,VALID,917.901,VALID,0,VALID,83.9567,VALID,294.926,VALID,23.5217,VALID,138,VALID,0.924609,
2015-04-09, 08:53:04,VALID,917.889,VALID,0,VALID,82.4854,VALID,263.338,VALID,23.5217,VALID,131,VALID,1.33242,
2015-04-09, 08:54:04,VALID,917.89,VALID,0,VALID,82.8208,VALID,255.71,VALID,23.5412,VALID,108,VALID,1.35195,
2015-04-09, 08:55:04,VALID,917.895,VALID,0,VALID,82.2109,VALID,250.553,VALID,23.5217,VALID,137,VALID,2.11641,
2015-04-09, 08:56:04,VALID,917.898,VALID,0,VALID,83.3773,VALID,304.273,VALID,23.4827,VALID,126,VALID,0.491016,
2015-04-09, 08:57:04,VALID,917.904,VALID,0,VALID,82.8208,VALID,345.531,VALID,23.5626,VALID,138,VALID,0.30625,
2015-04-09, 08:58:04,VALID,917.877,VALID,0,VALID,81.5477,VALID,418.483,VALID,23.5412,VALID,140,VALID,1.58672,
2015-04-09, 08:59:04,VALID,917.907,VALID,0,VALID,83.2172,VALID,463.286,VALID,23.6974,VALID,102,VALID,0,
2015-04-09, 09:00:04,VALID,917.889,VALID,0,VALID,83.3087,VALID,487.568,VALID,23.8926,VALID,104,VALID,0.326172,
2015-04-09, 09:01:04,VALID,917.917,VALID,0,VALID,80.6481,VALID,501.106,VALID,24.0097,VALID,151,VALID,0.470703,
2015-04-09, 09:02:04,VALID,917.919,VALID,0,VALID,80.1983,VALID,500.998,VALID,24.0878,VALID,118,VALID,0.209375,
2015-04-09, 09:03:04,VALID,917.906,VALID,0,VALID,80.2593,VALID,506.585,VALID,24.1659,VALID,111,VALID,0,
2015-04-09, 09:04:04,VALID,917.952,VALID,0,VALID,80.7472,VALID,504.006,VALID,24.3221,VALID,76,VALID,0,
2015-04-09, 09:05:04,VALID,917.913,VALID,0,VALID,80.206,VALID,502.61,VALID,24.4392,VALID,156,VALID,0.159375,
2015-04-09, 09:06:04,VALID,917.921,VALID,0,VALID,79.6266,VALID,504.436,VALID,24.3983,VALID,161,VALID,1.34805,
2015-04-09, 09:07:04,VALID,917.917,VALID,0,VALID,80.1602,VALID,505.618,VALID,24.3593,VALID,126,VALID,1.48594,
2015-04-09, 09:08:04,VALID,917.917,VALID,0,VALID,79.8172,VALID,497.667,VALID,24.3806,VALID,157,VALID,0.232031,
2015-04-09, 09:09:04,VALID,917.907,VALID,0,VALID,79.8248,VALID,477.254,VALID,24.4587,VALID,111,VALID,1.94336,
2015-04-09, 09:10:04,VALID,917.897,VALID,0,VALID,77.3014,VALID,494.767,VALID,24.3983,VALID,149,VALID,0.984766,
2015-04-09, 09:11:04,VALID,917.899,VALID,0,VALID,77.7817,VALID,330.811,VALID,24.3416,VALID,171,VALID,0.896875,
2015-04-09, 09:12:04,VALID,917.909,VALID,0,VALID,79.9773,VALID,527.429,VALID,24.3611,VALID,134,VALID,0.0269531,
2015-04-09, 09:13:04,VALID,917.916,VALID,0,VALID,79.8934,VALID,548.165,VALID,24.4783,VALID,146,VALID,0.455078,
2015-04-09, 09:14:04,VALID,917.947,VALID,0,VALID,79.3064,VALID,223.263,VALID,24.5368,VALID,119,VALID,0.404297,
2015-04-09, 09:15:04,VALID,917.954,VALID,0,VALID,78.262,VALID,214.453,VALID,24.5564,VALID,142,VALID,0.772266,
2015-04-09, 09:16:04,VALID,917.96,VALID,0,VALID,78.1171,VALID,315.125,VALID,24.3806,VALID,127,VALID,1.32656,
2015-04-09, 09:17:04,VALID,917.986,VALID,0,VALID,78.384,VALID,288.802,VALID,24.1659,VALID,124,VALID,0.415625,
2015-04-09, 09:18:04,VALID,918.002,VALID,0,VALID,80.4042,VALID,431.054,VALID,24.0878,VALID,132,VALID,0.0179687,
2015-04-09, 09:19:04,VALID,917.975,VALID,0,VALID,81.6697,VALID,270.644,VALID,24.1055,VALID,110,VALID,0,
2015-04-09, 09:20:04,VALID,917.969,VALID,0,VALID,78.3458,VALID,238.412,VALID,24.1482,VALID,117,VALID,0.401953,
2015-04-09, 09:21:04,VALID,917.963,VALID,0,VALID,80.9454,VALID,267.421,VALID,24.1464,VALID,77,VALID,0,
2015-04-09, 09:23:04,VALID,918.013,VALID,0,VALID,80.2746,VALID,260.115,VALID,24.2049,VALID,78,VALID,0,
2015-04-09, 09:24:04,VALID,917.986,VALID,0,VALID,78.7118,VALID,266.561,VALID,24.283,VALID,79,VALID,0,
2015-04-09, 09:25:04,VALID,918.028,VALID,0,VALID,78.2772,VALID,266.239,VALID,24.3806,VALID,83,VALID,0,
2015-04-09, 09:26:04,VALID,918.033,VALID,0,VALID,79.7409,VALID,263.983,VALID,24.4002,VALID,94,VALID,0,
2015-04-09, 09:27:04,VALID,918.037,VALID,0,VALID,78.4068,VALID,265.272,VALID,24.3611,VALID,94,VALID,0,
2015-04-09, 09:28:04,VALID,918.041,VALID,0,VALID,77.736,VALID,260.545,VALID,24.3416,VALID,196,VALID,0.00429688,
2015-04-09, 09:29:04,VALID,918.034,VALID,0,VALID,79.0167,VALID,259.578,VALID,24.3806,VALID,159,VALID,0,
2015-04-09, 09:30:04,VALID,918.026,VALID,0,VALID,79.0624,VALID,258.181,VALID,24.4392,VALID,194,VALID,0,
2015-04-09, 09:31:04,VALID,918.068,VALID,0,VALID,78.2162,VALID,254.958,VALID,24.4959,VALID,191,VALID,0,
2015-04-09, 09:32:04,VALID,918.059,VALID,0,VALID,77.9647,VALID,245.288,VALID,24.5954,VALID,191,VALID,0,
2015-04-09, 09:33:04,VALID,918.07,VALID,0,VALID,77.9418,VALID,228.42,VALID,24.693,VALID,186,VALID,0,
2015-04-09, 09:34:04,VALID,918.057,VALID,0,VALID,78.5136,VALID,211.552,VALID,24.7711,VALID,157,VALID,0,
2015-04-09, 09:35:04,VALID,918.063,VALID,0,VALID,75.1516,VALID,198.981,VALID,24.8102,VALID,190,VALID,0,
2015-04-09, 09:36:04,VALID,918.08,VALID,0,VALID,76.318,VALID,188.237,VALID,24.693,VALID,171,VALID,0,
2015-04-09, 09:37:04,VALID,918.091,VALID,0,VALID,76.2418,VALID,176.311,VALID,24.693,VALID,175,VALID,0,
2015-04-09, 09:38:04,VALID,918.088,VALID,0,VALID,76.3714,VALID,168.145,VALID,24.7321,VALID,73,VALID,0,
2015-04-09, 09:39:04,VALID,918.086,VALID,0,VALID,76.0207,VALID,168.468,VALID,24.654,VALID,144,VALID,0.50625,
2015-04-09, 09:40:04,VALID,918.089,VALID,0,VALID,75.4566,VALID,164.492,VALID,24.4783,VALID,148,VALID,0,
2015-04-09, 09:41:04,VALID,918.068,VALID,0,VALID,76.3866,VALID,158.261,VALID,24.3416,VALID,159,VALID,0,
2015-04-09, 09:42:04,VALID,918.053,VALID,0,VALID,77.3853,VALID,157.186,VALID,24.3416,VALID,160,VALID,0,
2015-04-09, 09:43:04,VALID,918.055,VALID,0,VALID,77.0422,VALID,155.252,VALID,24.3611,VALID,163,VALID,0.256641,
2015-04-09, 09:44:04,VALID,918.028,VALID,0,VALID,77.0804,VALID,147.409,VALID,24.3611,VALID,185,VALID,0,
2015-04-09, 09:45:04,VALID,918.01,VALID,0,VALID,76.8059,VALID,138.707,VALID,24.3026,VALID,172,VALID,0,
2015-04-09, 09:46:04,VALID,918.004,VALID,0,VALID,76.8974,VALID,136.987,VALID,24.3416,VALID,175,VALID,0,
2015-04-09, 09:47:04,VALID,918.025,VALID,0,VALID,76.4476,VALID,140.963,VALID,24.3806,VALID,190,VALID,0,
2015-04-09, 09:48:04,VALID,918.008,VALID,0,VALID,77.2176,VALID,147.087,VALID,24.3825,VALID,186,VALID,0,
2015-04-09, 09:49:04,VALID,918.049,VALID,0,VALID,77.1871,VALID,148.806,VALID,24.4002,VALID,185,VALID,0,
2015-04-09, 09:50:04,VALID,918.043,VALID,0,VALID,77.3167,VALID,156.112,VALID,24.4392,VALID,162,VALID,0,
2015-04-09, 09:51:04,VALID,918.048,VALID,0,VALID,78.323,VALID,163.525,VALID,24.4392,VALID,162,VALID,0,
2015-04-09, 09:52:04,VALID,918.052,VALID,0,VALID,77.9571,VALID,168.683,VALID,24.3611,VALID,163,VALID,0,
2015-04-09, 09:53:04,VALID,918.079,VALID,0,VALID,79.8858,VALID,175.344,VALID,24.3806,VALID,158,VALID,0,
2015-04-09, 09:54:04,VALID,918.076,VALID,0,VALID,79.619,VALID,177.385,VALID,24.4002,VALID,158,VALID,0,
2015-04-09, 09:55:04,VALID,918.068,VALID,0,VALID,77.5073,VALID,176.526,VALID,24.363,VALID,128,VALID,1.14961,
2015-04-09, 09:56:04,VALID,918.052,VALID,0,VALID,77.5835,VALID,176.633,VALID,24.2458,VALID,122,VALID,0.00234375,
2015-04-09, 09:57:04,VALID,918.075,VALID,0,VALID,78.7651,VALID,185.336,VALID,24.2849,VALID,122,VALID,0,
2015-04-09, 09:58:04,VALID,918.055,VALID,0,VALID,77.4234,VALID,199.411,VALID,24.2245,VALID,121,VALID,0.00117188,
2015-04-09, 09:59:04,VALID,918.026,VALID,0,VALID,79.4665,VALID,243.462,VALID,24.1854,VALID,113,VALID,0,
2015-04-09, 10:00:04,VALID,918.034,VALID,0,VALID,80.4957,VALID,636.696,VALID,24.2049,VALID,117,VALID,0,
2015-04-09, 10:01:04,VALID,918.052,VALID,0,VALID,80.8082,VALID,709.434,VALID,24.3611,VALID,97,VALID,0.00234375,
2015-04-09, 10:02:04,VALID,918.077,VALID,0,VALID,78.3687,VALID,715.988,VALID,24.5954,VALID,80,VALID,0,
2015-04-09, 10:03:04,VALID,918.095,VALID,0,VALID,77.4082,VALID,734.253,VALID,24.8121,VALID,38,VALID,0.265234,
2015-04-09, 10:04:04,VALID,918.122,VALID,0,VALID,74.0767,VALID,743.278,VALID,25.0836,VALID,33,VALID,0,
2015-04-09, 10:05:04,VALID,918.107,VALID,0,VALID,74.5951,VALID,758.32,VALID,25.3374,VALID,72,VALID,0,
2015-04-09, 10:06:04,VALID,918.119,VALID,0,VALID,72.735,VALID,762.402,VALID,25.5718,VALID,79,VALID,0.936328,
2015-04-09, 10:07:04,VALID,918.084,VALID,0,VALID,72.0184,VALID,765.303,VALID,25.4546,VALID,98,VALID,0.217969,
2015-04-09, 10:08:04,VALID,918.094,VALID,0,VALID,71.4009,VALID,753.162,VALID,25.4156,VALID,67,VALID,0,
2015-04-09, 10:09:04,VALID,918.059,VALID,0,VALID,73.2991,VALID,767.56,VALID,25.5913,VALID,67,VALID,0,
2015-04-09, 10:10:04,VALID,918.071,VALID,0,VALID,72.1099,VALID,751.121,VALID,25.9038,VALID,55,VALID,0.795703,
2015-04-09, 10:11:04,VALID,918.047,VALID,0,VALID,69.396,VALID,307.819,VALID,26.0796,VALID,132,VALID,0.0140625,
2015-04-09, 10:12:04,VALID,918.042,VALID,0,VALID,69.3655,VALID,308.141,VALID,26.2164,VALID,136,VALID,0,
2015-04-09, 10:13:04,VALID,918.016,VALID,0,VALID,68.4888,VALID,414.401,VALID,26.4312,VALID,116,VALID,0,
2015-04-09, 10:14:04,VALID,918.056,VALID,0,VALID,68.7022,VALID,800.437,VALID,26.6266,VALID,44,VALID,0,
2015-04-09, 10:15:04,VALID,918.053,VALID,0,VALID,68.2372,VALID,801.618,VALID,26.7438,VALID,44,VALID,0,
2015-04-09, 10:16:04,VALID,918.015,VALID,0,VALID,68.6565,VALID,790.767,VALID,26.9001,VALID,56,VALID,0.418359,
2015-04-09, 10:17:04,VALID,917.995,VALID,0,VALID,69.1444,VALID,766.7,VALID,26.9546,VALID,63,VALID,0,
2015-04-09, 10:18:04,VALID,917.974,VALID,0,VALID,68.4735,VALID,312.439,VALID,27.0348,VALID,32,VALID,1.25898,
2015-04-09, 10:19:04,VALID,917.942,VALID,0,VALID,68.7175,VALID,269.57,VALID,26.7634,VALID,7,VALID,2.17461,
2015-04-09, 10:20:04,VALID,917.895,VALID,0,VALID,68.2143,VALID,262.586,VALID,26.2925,VALID,18,VALID,1.78594,
2015-04-09, 10:21:04,VALID,917.92,VALID,0,VALID,70.5318,VALID,273.76,VALID,25.9409,VALID,9,VALID,0.645703,
2015-04-09, 10:22:04,VALID,917.91,VALID,0,VALID,71.1112,VALID,323.076,VALID,25.7827,VALID,12,VALID,0.851953,
2015-04-09, 10:23:04,VALID,917.865,VALID,0,VALID,72.8494,VALID,508.626,VALID,25.5913,VALID,39,VALID,1.48281,
2015-04-09, 10:24:04,VALID,917.891,VALID,0,VALID,75.0144,VALID,780.56,VALID,25.4937,VALID,30,VALID,0.111328,
2015-04-09, 10:25:04,VALID,917.878,VALID,0,VALID,74.0005,VALID,563.851,VALID,25.6089,VALID,29,VALID,1.82266,
2015-04-09, 10:26:04,VALID,917.882,VALID,0,VALID,72.026,VALID,702.343,VALID,25.5523,VALID,32,VALID,1.37617,
2015-04-09, 10:27:04,VALID,917.881,VALID,0,VALID,74.6942,VALID,727.377,VALID,25.5913,VALID,28,VALID,0.0105469,
2015-04-09, 10:28:04,VALID,917.895,VALID,0,VALID,69.5179,VALID,786.254,VALID,25.8257,VALID,50,VALID,0,
2015-04-09, 10:29:04,VALID,917.851,VALID,0,VALID,71.1493,VALID,810.643,VALID,26.019,VALID,3,VALID,0.146094,
2015-04-09, 10:30:04,VALID,917.846,VALID,0,VALID,70.8978,VALID,801.618,VALID,26.2554,VALID,5,VALID,0,
2015-04-09, 10:31:04,VALID,917.828,VALID,0,VALID,68.7175,VALID,792.701,VALID,26.4508,VALID,54,VALID,0.310156,
2015-04-09, 10:32:04,VALID,917.838,VALID,0,VALID,68.5421,VALID,793.99,VALID,26.5269,VALID,75,VALID,0.528516,
2015-04-09, 10:33:04,VALID,917.845,VALID,0,VALID,68.6641,VALID,805.916,VALID,26.7613,VALID,56,VALID,0.965234,
2015-04-09, 10:34:04,VALID,917.846,VALID,0,VALID,68.1533,VALID,808.71,VALID,27.0564,VALID,50,VALID,0.0105469,
2015-04-09, 10:35:04,VALID,917.832,VALID,0,VALID,68.0161,VALID,802.263,VALID,27.2086,VALID,332,VALID,0,
2015-04-09, 10:36:04,VALID,917.819,VALID,0,VALID,69.4188,VALID,798.073,VALID,27.3844,VALID,344,VALID,0,
2015-04-09, 10:37:04,VALID,917.827,VALID,0,VALID,67.7036,VALID,279.347,VALID,27.5212,VALID,32,VALID,0,
2015-04-09, 10:38:04,VALID,917.818,VALID,0,VALID,66.1636,VALID,253.991,VALID,27.4431,VALID,79,VALID,1.02734,
2015-04-09, 10:39:04,VALID,917.859,VALID,0,VALID,65.7748,VALID,244.536,VALID,27.1305,VALID,87,VALID,0.767187,
2015-04-09, 10:40:04,VALID,917.876,VALID,0,VALID,68.8166,VALID,260.545,VALID,26.5835,VALID,80,VALID,0.00195313,
2015-04-09, 10:41:04,VALID,917.885,VALID,0,VALID,68.4125,VALID,354.341,VALID,26.2885,VALID,51,VALID,0.116016,
2015-04-09, 10:42:04,VALID,917.907,VALID,0,VALID,68.1152,VALID,644.002,VALID,26.0737,VALID,80,VALID,0,
2015-04-09, 10:43:04,VALID,917.892,VALID,0,VALID,70.5014,VALID,447.922,VALID,26.1342,VALID,40,VALID,0.103125,
2015-04-09, 10:44:04,VALID,917.901,VALID,0,VALID,69.2054,VALID,414.293,VALID,26.1538,VALID,345,VALID,1.10547,
2015-04-09, 10:45:04,VALID,917.911,VALID,0,VALID,69.3883,VALID,873.282,VALID,26.1382,VALID,15,VALID,1.97812,
2015-04-09, 10:46:04,VALID,917.885,VALID,0,VALID,71.3018,VALID,919.052,VALID,26.1362,VALID,31,VALID,1.18477,
2015-04-09, 10:47:04,VALID,917.903,VALID,0,VALID,68.6641,VALID,802.263,VALID,26.31,VALID,24,VALID,0,
2015-04-09, 10:48:04,VALID,917.884,VALID,0,VALID,67.7493,VALID,862.215,VALID,26.5464,VALID,24,VALID,0,
2015-04-09, 10:49:04,VALID,917.861,VALID,0,VALID,66.6439,VALID,890.365,VALID,26.7613,VALID,24,VALID,0,
2015-04-09, 10:50:04,VALID,917.903,VALID,0,VALID,65.5461,VALID,907.555,VALID,27.0153,VALID,104,VALID,0,
2015-04-09, 10:51:04,VALID,917.9,VALID,0,VALID,64.2197,VALID,902.291,VALID,26.896,VALID,166,VALID,0.466406,
2015-04-09, 10:52:04,VALID,917.86,VALID,0,VALID,63.1829,VALID,874.034,VALID,26.859,VALID,128,VALID,0,
2015-04-09, 10:53:04,VALID,917.9,VALID,0,VALID,67.1775,VALID,876.935,VALID,26.896,VALID,175,VALID,1.16328,
2015-04-09, 10:54:04,VALID,917.9,VALID,0,VALID,64.9668,VALID,833.099,VALID,26.9567,VALID,119,VALID,0.00195313,
2015-04-09, 10:55:04,VALID,917.917,VALID,0,VALID,64.5856,VALID,620.043,VALID,27.15,VALID,161,VALID,0,
2015-04-09, 10:56:04,VALID,917.906,VALID,0,VALID,62.5501,VALID,311.042,VALID,27.2086,VALID,63,VALID,1.11484,